Flag for U.S.A. Weather past 2 weeks in Sunrise, Florida, U.S.A.

Now
84 °F

Scattered clouds.


Feels Like: 93 °F
Forecast: 75 / 93 °F
Wind: 5 mph from Southwest

Location: Fort Lauderdale Executive Airport

Current Time: Jul 28, 2015 at 9:27:23 AM

Latest Report: Jul 28, 2015 at 8:53 AM


Visibility: 10 mi

Pressure: 30.04 "Hg

Humidity: 77%

Dew point: 76 °F

Location of SunriseLocation

Historic Weather in Sunrise — Graph

°F

Sunrise temperature yesterday

Maximum temperature yesterday: 93 °F (at 11:53 AM)
Minimum temperature yesterday: 78 °F (at 3:53 AM)
Average temperature yesterday: 85 °F

Past Weeks' High & Low Weather Summary

 TemperatureHumidityPressure
High94 °F (Jul 13, 12:53 PM)100% (Jul 18, 6:53 AM)30.11 "Hg (Jul 18, 6:53 AM)
Low74 °F (Jul 16, 1:00 PM)40% (Jul 13, 12:53 PM)29.89 "Hg (Jul 26, 4:53 AM)
Average83 °F75%30.01 "Hg
* Reported Jul 13 7:53 AM — Jul 28 7:53 AM, Sunrise, Weather by CustomWeather, © 2015

Note: Actual official high and low records may vary slightly from our data, if they occured in-between our weather recording intervals... More about our weather records

Advertising

Sunrise weather history for previous 24 hours

 ConditionsComfort  
Time TempWeatherWind HumidityBarometerVisibility
7:53 AM
Tue, Jul 28
80 °FFog.3 mph87%30.02 "Hg6 mi
6:53 AM78 °FPassing clouds.No wind90%30.01 "Hg7 mi
5:53 AM78 °FClear.No wind90%30.00 "Hg8 mi
4:53 AM78 °FClear.3 mph90%29.98 "Hg10 mi
3:53 AM79 °FClear.3 mph88%29.98 "Hg10 mi
2:53 AM79 °FClear.3 mph88%29.98 "Hg10 mi
1:53 AM81 °FClear.No wind79%30.00 "Hg10 mi
12:53 AM80 °FClear.3 mph81%30.01 "Hg10 mi
11:53 PM
Mon, Jul 27
82 °FClear.3 mph77%30.02 "Hg10 mi
10:53 PM84 °FClear.No wind70%30.02 "Hg10 mi
9:53 PM84 °FPassing clouds.3 mph74%30.01 "Hg10 mi
8:53 PM85 °FSunny.No wind70%29.99 "Hg10 mi
7:53 PM86 °FBroken clouds.3 mph67%29.99 "Hg10 mi
6:53 PM88 °FScattered clouds.9 mph63%29.98 "Hg10 mi
4:53 PM91 °FScattered clouds.13 mph56%29.97 "Hg10 mi
3:53 PM92 °FBroken clouds.10 mph54%29.97 "Hg10 mi
2:53 PM88 °FThunderstorms. Scattered clouds.12 mph55%29.99 "Hg10 mi
1:53 PM87 °FBroken clouds.18 mph61%29.99 "Hg10 mi
12:53 PM89 °FScattered clouds.12 mph59%30.00 "Hg10 mi
11:53 AM93 °FScattered clouds.14 mph52%30.02 "Hg10 mi
10:53 AM91 °FScattered clouds.10 mph54%30.01 "Hg10 mi
9:53 AM88 °FScattered clouds.10 mph65%30.01 "Hg10 mi
Weather by CustomWeather, © 2015

See weather overviewHow to use our weather pages